Time,TemperatureF,DewpointF,PressureIn,WindDirection,WindDirectionDegrees,WindSpeedMPH,WindSpeedGustMPH,Humidity,HourlyPrecipIn,Conditions,Clouds,dailyrainin,SoftwareType,DateUTC
2013-11-16 00:00:00,32.8,32.0,29.36,West,269,0.0,0.0,97,0.00,,,0.48,weatherlink.com 1.10,2013-11-16 08:00:00,
2013-11-16 00:15:00,32.8,32.0,29.36,West,274,1.0,1.0,97,0.00,,,0.48,weatherlink.com 1.10,2013-11-16 08:15:00,
2013-11-16 00:30:00,33.3,33.0,29.37,SW,236,0.0,3.0,98,0.01,,,0.49,weatherlink.com 1.10,2013-11-16 08:30:00,
2013-11-16 00:45:00,33.0,32.0,29.36,SW,229,0.0,0.0,97,0.04,,,0.52,weatherlink.com 1.10,2013-11-16 08:45:00,
2013-11-16 01:00:00,32.9,32.0,29.35,SW,233,0.0,1.0,97,0.05,,,0.53,weatherlink.com 1.10,2013-11-16 09:00:00,
2013-11-16 01:15:00,32.8,32.0,29.35,SW,233,0.0,1.0,97,0.06,,,0.54,weatherlink.com 1.10,2013-11-16 09:15:00,
2013-11-16 01:30:00,32.6,32.0,29.35,SW,233,0.0,0.0,97,0.04,,,0.54,weatherlink.com 1.10,2013-11-16 09:30:00,
2013-11-16 01:45:00,32.6,32.0,29.35,West,266,0.0,0.0,97,0.03,,,0.55,weatherlink.com 1.10,2013-11-16 09:45:00,
2013-11-16 02:00:00,32.7,32.0,29.36,West,263,0.0,0.0,97,0.02,,,0.55,weatherlink.com 1.10,2013-11-16 10:00:00,
2013-11-16 02:15:00,32.7,32.0,29.37,WSW,246,0.0,0.0,98,0.01,,,0.55,weatherlink.com 1.10,2013-11-16 10:15:00,
2013-11-16 02:30:00,32.9,32.0,29.37,ENE,71,0.0,2.0,98,0.00,,,0.55,weatherlink.com 1.10,2013-11-16 10:30:00,
2013-11-16 02:45:00,32.8,32.0,29.37,NNE,13,0.0,2.0,98,0.01,,,0.56,weatherlink.com 1.10,2013-11-16 10:45:00,
2013-11-16 03:00:00,33.3,33.0,29.38,South,184,0.0,2.0,98,0.01,,,0.56,weatherlink.com 1.10,2013-11-16 11:00:00,
2013-11-16 03:15:00,33.6,33.0,29.38,West,266,0.0,0.0,98,0.02,,,0.57,weatherlink.com 1.10,2013-11-16 11:15:00,
2013-11-16 03:30:00,33.4,33.0,29.38,SE,143,0.0,0.0,98,0.02,,,0.57,weatherlink.com 1.10,2013-11-16 11:30:00,
2013-11-16 03:45:00,33.2,33.0,29.38,SW,217,0.0,0.0,98,0.02,,,0.58,weatherlink.com 1.10,2013-11-16 11:45:00,
2013-11-16 04:00:00,32.9,32.0,29.38,NNE,13,0.0,1.0,98,0.02,,,0.58,weatherlink.com 1.10,2013-11-16 12:00:00,
2013-11-16 04:15:00,33.0,33.0,29.40,East,99,0.0,1.0,98,0.02,,,0.59,weatherlink.com 1.10,2013-11-16 12:15:00,
2013-11-16 04:30:00,33.5,33.0,29.41,SE,136,0.0,2.0,98,0.01,,,0.00,weatherlink.com 1.10,2013-11-16 12:30:00,
2013-11-16 04:45:00,33.5,33.0,29.41,West,274,0.0,1.0,98,0.02,,,0.01,weatherlink.com 1.10,2013-11-16 12:45:00,
2013-11-16 05:00:00,33.1,33.0,29.41,NE,44,0.0,3.0,98,0.02,,,0.01,weatherlink.com 1.10,2013-11-16 13:00:00,
2013-11-16 05:15:00,33.6,33.0,29.42,East,84,0.0,2.0,98,0.02,,,0.02,weatherlink.com 1.10,2013-11-16 13:15:00,
2013-11-16 05:30:00,33.7,33.0,29.42,South,191,0.0,4.0,98,0.02,,,0.02,weatherlink.com 1.10,2013-11-16 13:30:00,
2013-11-16 05:45:00,33.9,33.0,29.43,ENE,71,0.0,3.0,98,0.01,,,0.02,weatherlink.com 1.10,2013-11-16 13:45:00,
2013-11-16 06:00:00,33.9,33.0,29.43,ESE,105,0.0,2.0,98,0.02,,,0.03,weatherlink.com 1.10,2013-11-16 14:00:00,
2013-11-16 06:15:00,33.6,33.0,29.44,South,175,0.0,3.0,98,0.01,,,0.03,weatherlink.com 1.10,2013-11-16 14:15:00,
2013-11-16 06:30:00,33.3,33.0,29.45,ENE,71,0.0,3.0,98,0.01,,,0.03,weatherlink.com 1.10,2013-11-16 14:30:00,
2013-11-16 06:45:00,32.8,32.0,29.46,ENE,68,0.0,1.0,97,0.01,,,0.03,weatherlink.com 1.10,2013-11-16 14:45:00,
2013-11-16 07:00:00,32.4,32.0,29.47,ENE,68,0.0,0.0,97,0.00,,,0.03,weatherlink.com 1.10,2013-11-16 15:00:00,
2013-11-16 07:15:00,32.5,32.0,29.47,NNE,22,0.0,2.0,98,0.00,,,0.03,weatherlink.com 1.10,2013-11-16 15:15:00,
2013-11-16 07:31:00,32.7,32.0,29.49,NE,44,0.0,1.0,98,0.00,,,0.03,weatherlink.com 1.10,2013-11-16 15:31:00,
2013-11-16 07:46:00,32.4,32.0,29.50,NE,43,0.0,0.0,97,0.00,,,0.03,weatherlink.com 1.10,2013-11-16 15:46:00,
2013-11-16 08:01:00,32.3,32.0,29.50,East,98,1.0,1.0,97,0.00,,,0.03,weatherlink.com 1.10,2013-11-16 16:01:00,
2013-11-16 08:16:00,32.3,32.0,29.50,ENE,70,0.0,1.0,98,0.00,,,0.03,weatherlink.com 1.10,2013-11-16 16:16:00,
2013-11-16 08:31:00,32.1,32.0,29.52,ENE,70,0.0,1.0,98,0.00,,,0.03,weatherlink.com 1.10,2013-11-16 16:31:00,
2013-11-16 08:46:00,32.1,32.0,29.53,SW,221,2.0,2.0,98,0.00,,,0.03,weatherlink.com 1.10,2013-11-16 16:46:00,
2013-11-16 09:01:00,32.5,32.0,29.54,NNE,32,0.0,2.0,98,0.00,,,0.03,weatherlink.com 1.10,2013-11-16 17:01:00,
2013-11-16 09:16:00,33.9,33.0,29.54,SW,225,2.0,4.0,98,0.00,,,0.03,weatherlink.com 1.10,2013-11-16 17:16:00,
2013-11-16 09:31:00,34.7,34.0,29.54,West,276,1.0,1.0,98,0.00,,,0.03,weatherlink.com 1.10,2013-11-16 17:31:00,
2013-11-16 09:46:00,36.0,36.0,29.56,ENE,65,1.0,5.0,98,0.01,,,0.04,weatherlink.com 1.10,2013-11-16 17:46:00,
2013-11-16 10:01:00,36.4,35.0,29.56,SW,224,1.0,2.0,96,0.01,,,0.04,weatherlink.com 1.10,2013-11-16 18:01:00,
2013-11-16 10:16:00,37.2,35.0,29.57,East,84,3.0,3.0,92,0.02,,,0.05,weatherlink.com 1.10,2013-11-16 18:16:00,
2013-11-16 10:31:00,37.7,34.0,29.58,ESE,105,1.0,5.0,87,0.03,,,0.06,weatherlink.com 1.10,2013-11-16 18:31:00,
2013-11-16 10:46:00,38.6,35.0,29.59,SE,126,1.0,8.0,85,0.03,,,0.07,weatherlink.com 1.10,2013-11-16 18:46:00,
2013-11-16 11:02:00,39.2,35.0,29.59,SE,131,0.0,3.0,85,0.04,,,0.08,weatherlink.com 1.10,2013-11-16 19:02:00,
2013-11-16 11:16:00,39.9,36.0,29.59,South,186,0.0,3.0,87,0.04,,,0.09,weatherlink.com 1.10,2013-11-16 19:16:00,
2013-11-16 11:31:00,40.4,35.0,29.59,SSE,153,0.0,5.0,81,0.05,,,0.11,weatherlink.com 1.10,2013-11-16 19:31:00,
2013-11-16 11:46:00,40.6,35.0,29.58,ESE,117,0.0,2.0,81,0.05,,,0.12,weatherlink.com 1.10,2013-11-16 19:46:00,
2013-11-16 12:01:00,40.9,34.0,29.58,ESE,109,2.0,3.0,76,0.06,,,0.14,weatherlink.com 1.10,2013-11-16 20:01:00,
2013-11-16 12:16:00,41.0,34.0,29.58,SSE,148,3.0,3.0,76,0.06,,,0.15,weatherlink.com 1.10,2013-11-16 20:16:00,
2013-11-16 12:31:00,41.2,34.0,29.59,SE,125,3.0,5.0,75,0.05,,,0.16,weatherlink.com 1.10,2013-11-16 20:31:00,
2013-11-16 12:46:00,41.4,34.0,29.59,SE,136,0.0,5.0,74,0.05,,,0.17,weatherlink.com 1.10,2013-11-16 20:46:00,
2013-11-16 13:01:00,41.9,35.0,29.60,SW,231,1.0,5.0,75,0.04,,,0.18,weatherlink.com 1.10,2013-11-16 21:01:00,
2013-11-16 13:16:00,41.1,34.0,29.60,ESE,106,0.0,3.0,77,0.04,,,0.19,weatherlink.com 1.10,2013-11-16 21:16:00,
2013-11-16 13:32:00,40.8,33.0,29.60,ESE,114,1.0,4.0,75,0.03,,,0.19,weatherlink.com 1.10,2013-11-16 21:32:00,
2013-11-16 13:47:00,41.1,33.0,29.60,WSW,243,0.0,4.0,73,0.03,,,0.20,weatherlink.com 1.10,2013-11-16 21:47:00,
2013-11-16 14:02:00,41.1,32.0,29.60,ESE,103,0.0,7.0,70,0.02,,,0.20,weatherlink.com 1.10,2013-11-16 22:02:00,
2013-11-16 14:17:00,40.9,32.0,29.61,West,277,0.0,4.0,70,0.01,,,0.20,weatherlink.com 1.10,2013-11-16 22:17:00,
2013-11-16 14:32:00,40.7,32.0,29.61,ESE,115,1.0,3.0,72,0.02,,,0.21,weatherlink.com 1.10,2013-11-16 22:32:00,
2013-11-16 14:47:00,40.3,32.0,29.62,SE,131,1.0,7.0,71,0.01,,,0.21,weatherlink.com 1.10,2013-11-16 22:47:00,
2013-11-16 15:02:00,40.0,31.0,29.62,ESE,102,2.0,12.0,71,0.01,,,0.21,weatherlink.com 1.10,2013-11-16 23:02:00,
2013-11-16 15:17:00,39.6,31.0,29.63,WSW,249,0.0,5.0,72,0.01,,,0.21,weatherlink.com 1.10,2013-11-16 23:17:00,
2013-11-16 15:32:00,39.4,31.0,29.64,SW,232,0.0,3.0,73,0.00,,,0.21,weatherlink.com 1.10,2013-11-16 23:32:00,
2013-11-16 15:47:00,39.1,31.0,29.64,ESE,110,1.0,4.0,73,0.00,,,0.21,weatherlink.com 1.10,2013-11-16 23:47:00,
2013-11-16 16:02:00,38.8,31.0,29.64,SSW,192,0.0,4.0,74,0.00,,,0.21,weatherlink.com 1.10,2013-11-17 00:02:00,
2013-11-16 16:17:00,38.6,31.0,29.65,SE,125,1.0,4.0,74,0.00,,,0.21,weatherlink.com 1.10,2013-11-17 00:17:00,
2013-11-16 16:32:00,38.9,31.0,29.65,East,92,0.0,4.0,73,0.00,,,0.21,weatherlink.com 1.10,2013-11-17 00:32:00,
2013-11-16 16:47:00,39.0,31.0,29.65,ESE,111,2.0,5.0,74,0.00,,,0.21,weatherlink.com 1.10,2013-11-17 00:47:00,
2013-11-16 17:02:00,38.4,32.0,29.66,WSW,248,1.0,6.0,77,0.00,,,0.21,weatherlink.com 1.10,2013-11-17 01:02:00,
2013-11-16 17:17:00,38.2,32.0,29.66,SSE,148,1.0,5.0,78,0.01,,,0.22,weatherlink.com 1.10,2013-11-17 01:17:00,
2013-11-16 17:32:00,38.3,32.0,29.66,ESE,103,0.0,7.0,77,0.01,,,0.22,weatherlink.com 1.10,2013-11-17 01:32:00,
2013-11-16 17:47:00,38.3,32.0,29.67,SSW,213,0.0,4.0,77,0.01,,,0.22,weatherlink.com 1.10,2013-11-17 01:47:00,
2013-11-16 18:02:00,38.3,32.0,29.66,East,97,2.0,7.0,77,0.01,,,0.22,weatherlink.com 1.10,2013-11-17 02:02:00,
2013-11-16 18:17:00,38.1,32.0,29.67,ESE,106,2.0,7.0,80,0.00,,,0.22,weatherlink.com 1.10,2013-11-17 02:17:00,
2013-11-16 18:32:00,37.8,33.0,29.68,SE,135,1.0,8.0,82,0.00,,,0.22,weatherlink.com 1.10,2013-11-17 02:32:00,
2013-11-16 18:47:00,37.1,33.0,29.68,NNE,18,1.0,5.0,86,0.00,,,0.22,weatherlink.com 1.10,2013-11-17 02:47:00,
2013-11-16 19:02:00,36.8,33.0,29.68,ESE,109,2.0,4.0,85,0.00,,,0.22,weatherlink.com 1.10,2013-11-17 03:02:00,
2013-11-16 19:17:00,36.7,33.0,29.68,ESE,105,2.0,3.0,85,0.00,,,0.22,weatherlink.com 1.10,2013-11-17 03:17:00,
2013-11-16 19:32:00,36.7,32.0,29.69,ESE,112,3.0,3.0,84,0.01,,,0.23,weatherlink.com 1.10,2013-11-17 03:32:00,
2013-11-16 19:47:00,36.4,33.0,29.69,WNW,284,0.0,5.0,87,0.01,,,0.23,weatherlink.com 1.10,2013-11-17 03:47:00,
2013-11-16 20:02:00,35.7,33.0,29.69,ENE,63,0.0,4.0,89,0.01,,,0.23,weatherlink.com 1.10,2013-11-17 04:02:00,
2013-11-16 20:17:00,35.9,33.0,29.70,SSE,148,1.0,3.0,88,0.01,,,0.23,weatherlink.com 1.10,2013-11-17 04:17:00,
2013-11-16 20:32:00,36.0,33.0,29.71,NW,307,0.0,3.0,88,0.00,,,0.23,weatherlink.com 1.10,2013-11-17 04:32:00,
2013-11-16 20:48:00,35.4,33.0,29.72,ENE,72,1.0,4.0,89,0.00,,,0.23,weatherlink.com 1.10,2013-11-17 04:48:00,
2013-11-16 21:02:00,35.3,33.0,29.73,NW,321,0.0,3.0,90,0.00,,,0.23,weatherlink.com 1.10,2013-11-17 05:02:00,
2013-11-16 21:17:00,35.3,33.0,29.72,East,88,2.0,4.0,91,0.00,,,0.23,weatherlink.com 1.10,2013-11-17 05:17:00,
2013-11-16 21:32:00,34.9,33.0,29.73,ESE,110,0.0,3.0,92,0.01,,,0.24,weatherlink.com 1.10,2013-11-17 05:32:00,
2013-11-16 21:47:00,35.0,33.0,29.74,ESE,103,2.0,4.0,92,0.01,,,0.24,weatherlink.com 1.10,2013-11-17 05:47:00,
2013-11-16 22:02:00,34.8,33.0,29.74,ESE,114,1.0,3.0,92,0.01,,,0.24,weatherlink.com 1.10,2013-11-17 06:02:00,
2013-11-16 22:17:00,34.3,33.0,29.75,SE,139,1.0,3.0,94,0.02,,,0.25,weatherlink.com 1.10,2013-11-17 06:17:00,
2013-11-16 22:32:00,33.7,32.0,29.75,ESE,123,0.0,2.0,94,0.01,,,0.25,weatherlink.com 1.10,2013-11-17 06:32:00,
2013-11-16 22:47:00,33.4,32.0,29.75,SE,132,0.0,1.0,95,0.02,,,0.26,weatherlink.com 1.10,2013-11-17 06:47:00,
2013-11-16 23:02:00,33.3,32.0,29.76,ESE,110,1.0,2.0,95,0.03,,,0.27,weatherlink.com 1.10,2013-11-17 07:02:00,
2013-11-16 23:17:00,33.5,33.0,29.76,ENE,57,1.0,1.0,96,0.02,,,0.27,weatherlink.com 1.10,2013-11-17 07:17:00,
2013-11-16 23:32:00,33.4,32.0,29.78,SSE,150,0.0,1.0,96,0.03,,,0.28,weatherlink.com 1.10,2013-11-17 07:32:00,
2013-11-16 23:47:00,33.6,33.0,29.78,NE,36,0.0,5.0,96,0.02,,,0.28,weatherlink.com 1.10,2013-11-17 07:47:00,